Weather reports worldwide

Advertisment
Alsancak, Cyprus (17572): temperature & dewpoint: 15.02.2019 22:00:00 - 21.02.2019 22:00:00 (EET)Alsancak, Cyprus (17572): wind speed: 15.02.2019 22:00:00 - 21.02.2019 22:00:00 (EET)Alsancak, Cyprus (17572): wind direction: 15.02.2019 22:00:00 - 21.02.2019 22:00:00 (EET)Alsancak, Cyprus (17572): reduced air pressure: 15.02.2019 22:00:00 - 21.02.2019 22:00:00 (EET)Alsancak, Cyprus (17572): visibility: 15.02.2019 22:00:00 - 21.02.2019 22:00:00 (EET)
Date & Time tt [°C] td [°C] ff [km/h] ff [kn] dd ppp [hPa] vv [km]
21.02.2019 22:00:00 - - - - - - -
21.02.2019 21:00:00 - - - - - - -
21.02.2019 20:00:00 - - - - - - -
21.02.2019 19:00:00 - - - - - - -
21.02.2019 18:00:00 - - - - - - -
21.02.2019 17:00:00 15,5 7,0 0 0 N 1021,1 10
21.02.2019 16:00:00 15,7 6,2 0 0 N 1021,1 10
21.02.2019 15:00:00 15,8 8,1 11 6 ENE 1021,6 10
21.02.2019 14:00:00 15,5 8,0 11 6 ENE 1021,5 10
21.02.2019 13:00:00 15,2 8,1 11 6 ENE 1022,0 10
21.02.2019 12:00:00 15,4 8,0 11 6 ENE 1022,5 10
21.02.2019 11:00:00 15,4 9,1 15 8 ENE 1022,5 10
21.02.2019 10:00:00 16,1 7,8 0 0 N 1022,5 10
21.02.2019 09:00:00 15,1 8,6 0 0 N 1022,3 10
21.02.2019 08:00:00 12,6 8,1 8 4 S 1022,1 10
21.02.2019 07:00:00 11,4 7,4 9 5 SSW 1021,8 10
21.02.2019 06:00:00 10,9 6,4 11 6 S 1021,5 10
21.02.2019 05:00:00 11,6 7,2 8 4 S 1021,4 10
21.02.2019 04:00:00 - - - - - - -
21.02.2019 03:00:00 - - - - - - -
21.02.2019 02:00:00 12,4 7,4 8 4 SW 1021,8 10
21.02.2019 01:00:00 - - - - - - -
21.02.2019 00:00:00 - - - - - - -
20.02.2019 23:00:00 12,4 7,2 0 0 N 1022,4 10
20.02.2019 22:00:00 12,0 6,8 5 3 SSW 1022,5 10
20.02.2019 21:00:00 12,6 7,1 8 4 S 1022,7 10
20.02.2019 20:00:00 12,8 7,1 11 6 SSW 1022,4 10
20.02.2019 19:00:00 13,7 7,4 9 5 SSW 1022,0 10
20.02.2019 18:00:00 15,1 7,7 0 0 N 1021,6 10
20.02.2019 17:00:00 15,5 7,6 11 6 SW 1021,3 10
20.02.2019 16:00:00 16,1 8,0 22 12 W 1021,1 10
20.02.2019 15:00:00 16,2 8,0 22 12 W 1021,1 10
20.02.2019 14:00:00 16,0 8,1 18 10 W 1021,7 10
20.02.2019 13:00:00 15,9 8,3 29 16 W 1022,1 10
20.02.2019 12:00:00 16,1 8,6 18 10 WNW 1022,5 10
20.02.2019 11:00:00 16,0 7,0 26 14 W 1022,8 10
20.02.2019 10:00:00 15,9 7,2 18 10 WNW 1022,9 10
20.02.2019 09:00:00 15,4 5,6 15 8 WSW 1022,0 10
20.02.2019 08:00:00 13,3 7,0 8 4 W 1022,3 10
20.02.2019 07:00:00 12,8 7,0 13 7 SW 1021,9 10
20.02.2019 06:00:00 13,6 8,0 9 5 WSW 1021,6 10
20.02.2019 05:00:00 - - - - - - -
20.02.2019 04:00:00 - - - - - - -
20.02.2019 03:00:00 14,2 8,7 21 11 W 1021,6 10
20.02.2019 02:00:00 14,1 8,7 21 11 W 1021,9 10
20.02.2019 01:00:00 14,2 8,9 18 10 W 1021,8 10
20.02.2019 00:00:00 14,3 8,5 22 12 W 1021,9 10
19.02.2019 23:00:00 14,6 9,0 21 11 W 1021,9 10
19.02.2019 22:00:00 - - - - - - -
19.02.2019 21:00:00 14,7 9,6 21 11 W 1021,8 10
19.02.2019 20:00:00 14,9 9,5 22 12 W 1021,7 10
19.02.2019 19:00:00 14,9 9,6 22 12 W 1021,5 10
19.02.2019 18:00:00 15,6 10,1 18 10 W 1021,0 10
19.02.2019 17:00:00 16,5 10,3 24 13 W 1020,4 10
19.02.2019 16:00:00 17,2 9,6 21 11 W 1020,7 10
19.02.2019 15:00:00 17,4 10,4 9 5 W 1020,6 10
19.02.2019 14:00:00 17,4 10,3 31 17 W 1020,5 10
19.02.2019 13:00:00 17,8 9,6 22 12 WNW 1021,2 10
19.02.2019 12:00:00 17,3 9,1 28 15 WNW 1021,7 10
19.02.2019 11:00:00 16,7 8,4 18 10 W 1021,8 10
19.02.2019 10:00:00 16,2 7,6 15 8 W 1021,8 10
19.02.2019 09:00:00 15,9 7,8 15 8 WNW 1021,7 10
19.02.2019 08:00:00 13,7 6,7 0 0 N 1021,3 10
19.02.2019 07:00:00 14,2 8,4 18 10 W 1020,5 10
19.02.2019 06:00:00 14,4 8,9 13 7 W 1020,4 10
19.02.2019 05:00:00 - - - - - - -
19.02.2019 04:00:00 - - - - - - -
19.02.2019 03:00:00 - - - - - - -
19.02.2019 02:00:00 14,2 7,9 16 9 W 1020,9 10
19.02.2019 01:00:00 - - - - - - -
19.02.2019 00:00:00 - - - - - - -
18.02.2019 23:00:00 13,9 6,9 15 8 W 1020,7 10
18.02.2019 22:00:00 14,0 6,7 31 17 W 1020,7 10
18.02.2019 21:00:00 14,0 5,4 18 10 WSW 1020,5 10
18.02.2019 20:00:00 13,9 5,1 11 6 WSW 1020,3 10
18.02.2019 19:00:00 13,9 4,8 21 11 W 1020,2 10
18.02.2019 18:00:00 14,2 4,9 22 12 W 1019,6 10
18.02.2019 17:00:00 15,6 6,5 28 15 W 1019,2 10
18.02.2019 16:00:00 15,8 7,3 24 13 W 1019,4 10
18.02.2019 15:00:00 15,9 5,8 24 13 NW 1019,7 10
18.02.2019 14:00:00 15,8 6,2 8 4 WNW 1019,9 10
18.02.2019 13:00:00 15,6 5,0 8 4 W 1020,3 10
18.02.2019 12:00:00 15,4 5,0 24 13 W 1021,0 10
18.02.2019 11:00:00 15,1 6,1 13 7 WNW 1021,2 10
18.02.2019 10:00:00 15,6 4,3 0 0 N 1021,3 10
18.02.2019 09:00:00 14,0 7,8 5 3 WNW 1021,4 10
18.02.2019 08:00:00 11,1 7,5 0 0 N 1020,7 10
18.02.2019 07:00:00 10,2 6,8 0 0 N 1020,4 10
18.02.2019 06:00:00 10,3 6,0 0 0 N 1020,0 10
18.02.2019 05:00:00 10,6 6,9 0 0 N 1020,0 10
18.02.2019 04:00:00 - - - - - - -
18.02.2019 03:00:00 - - - - - - -
18.02.2019 02:00:00 10,0 6,8 0 0 N 1020,3 10
18.02.2019 01:00:00 - - - - - - -
18.02.2019 00:00:00 - - - - - - -
17.02.2019 23:00:00 10,4 6,8 0 0 N 1020,8 10
17.02.2019 22:00:00 11,0 5,2 0 0 N 1020,8 10
17.02.2019 21:00:00 11,3 5,9 0 0 N 1020,8 10
17.02.2019 20:00:00 11,3 6,6 0 0 N 1021,1 10
17.02.2019 19:00:00 12,2 6,5 0 0 N 1028,3 10
17.02.2019 18:00:00 12,6 6,9 0 0 N 1020,8 10
17.02.2019 17:00:00 11,9 6,9 0 0 N 1020,8 10
17.02.2019 16:00:00 13,6 6,0 11 6 E 1021,2 10
17.02.2019 15:00:00 14,4 6,0 18 10 E 1021,0 10
17.02.2019 14:00:00 14,2 4,5 15 8 E 1021,7 10
17.02.2019 13:00:00 13,7 6,7 11 6 E 1022,0 10
17.02.2019 12:00:00 13,0 6,9 0 0 N 1022,9 10
17.02.2019 11:00:00 13,4 8,3 0 0 N 1023,3 10
17.02.2019 10:00:00 12,3 7,2 11 6 E 1023,3 10
17.02.2019 09:00:00 12,9 6,9 11 6 W 1022,7 10
17.02.2019 08:00:00 11,1 6,6 8 4 SW 1021,8 10
17.02.2019 07:00:00 11,0 6,7 8 4 SSW 1021,6 10
17.02.2019 06:00:00 10,9 7,2 8 4 S 1021,1 10
17.02.2019 05:00:00 10,6 7,4 8 4 S 1020,8 10
17.02.2019 04:00:00 - - - - - - -
17.02.2019 03:00:00 - - - - - - -
17.02.2019 02:00:00 10,6 7,3 13 7 WSW 1021,4 10
17.02.2019 01:00:00 - - - - - - -
17.02.2019 00:00:00 - - - - - - -
16.02.2019 23:00:00 11,9 8,9 8 4 SW 1020,8 10
16.02.2019 22:00:00 11,9 5,5 11 6 S 1020,0 10
16.02.2019 21:00:00 12,1 8,8 8 4 SSW 1020,4 10
16.02.2019 20:00:00 13,2 8,2 11 6 SSE 1020,0 10
16.02.2019 19:00:00 13,0 7,9 8 4 SSE 1019,5 10
16.02.2019 18:00:00 12,9 8,2 8 4 SSE 1018,9 10
16.02.2019 17:00:00 13,3 8,5 11 6 SE 1018,7 10
16.02.2019 16:00:00 13,6 8,3 15 8 ESE 1018,3 10
16.02.2019 15:00:00 13,2 8,3 11 6 ESE 1018,4 10
16.02.2019 14:00:00 12,3 8,4 11 6 E 1018,4 10
16.02.2019 13:00:00 11,8 8,4 18 10 NE 1019,0 10
16.02.2019 12:00:00 11,8 8,8 29 16 NE 1019,0 10
16.02.2019 11:00:00 11,1 8,5 9 5 E 1019,3 10
16.02.2019 10:00:00 11,8 8,6 11 6 E 1018,6 10
16.02.2019 09:00:00 12,2 8,6 41 22 NNE 1017,7 10
16.02.2019 08:00:00 12,3 9,1 16 9 E 1016,7 10
16.02.2019 07:00:00 12,1 8,4 9 5 SW 1015,8 10
16.02.2019 06:00:00 12,7 8,3 18 10 ESE 1015,1 10
16.02.2019 05:00:00 12,1 7,5 9 5 SSE 1015,0 10
16.02.2019 04:00:00 - - - - - - -
16.02.2019 03:00:00 12,0 8,5 9 5 NE 1014,5 10
16.02.2019 02:00:00 11,8 9,1 0 0 N 1014,4 10
16.02.2019 01:00:00 12,4 9,7 8 4 NE 1014,6 10
16.02.2019 00:00:00 12,7 9,7 29 16 E 1013,9 10
15.02.2019 23:00:00 12,4 9,2 11 6 E 1013,8 10
15.02.2019 22:00:00 12,7 10,2 28 15 ENE 1013,6 8

tt = temperature
td = dewpoint
ff = wind speed
dd = wind direction
ppp = reduced air pressure
vv = visibility

Next stations